Home   Weather   Thiès   Past weeks

Flag for Senegal Past Weather in Thiès, Senegal — Yesterday and Last 2 Weeks

Now
81 °F

Clear.


Feels Like: 86 °F
Forecast: N/A
Wind: 5 mph from Northwest

Location: Dakar / Yoff

Current Time: Sep 29, 2016 at 8:29:53 PM

Latest Report: Sep 29, 2016 at 8:00 PM


Visibility: 10 mi

Pressure: 29.89 "Hg

Humidity: 84%

Dew Point: 75 °F

Location of ThièsLocation

Past Weather in Thiès — Graph

°F

Thiès Temperature Yesterday

Maximum temperature yesterday: 86 °F (at 2:30 PM)
Minimum temperature yesterday: 73 °F (at 3:00 AM)
Average temperature yesterday: 82 °F

High & Low Weather Summary for the Past Weeks

 TemperatureHumidityPressure
High90 °F (Sep 21, 2:00 PM)100% (Sep 18, 11:30 AM)30.01 "Hg (Sep 18, 11:30 AM)
Low73 °F (Sep 28, 3:00 AM)54% (Sep 18, 3:00 PM)29.77 "Hg (Sep 16, 3:30 PM)
Average82 °F83%29.90 "Hg
* Reported Sep 14 7:00 PM — Sep 29 7:30 PM, Thiès, Weather by CustomWeather, © 2016

Note: Actual official high and low records may vary slightly from our data, if they occured in-between our weather recording intervals... More about our weather records

Advertising

Thiès Weather History for the Previous 24 Hours

Scroll right to see more
 ConditionsComfort  
Time TempWeatherWind HumidityBarometerVisibility
7:30 PM
Thu, Sep 29
81 °FClear.5 mph84%29.89 "Hg10 mi
7:00 PM81 °FClear.6 mph84%29.89 "Hg10 mi
6:30 PM82 °FPassing clouds.7 mph74%29.89 "HgN/A
6:00 PM84 °FPassing clouds.7 mph74%29.89 "HgN/A
5:30 PM86 °FPassing clouds.6 mph70%29.89 "HgN/A
5:00 PM84 °FPassing clouds.6 mph74%29.89 "HgN/A
4:30 PM82 °FPassing clouds.6 mph79%29.89 "HgN/A
4:00 PM84 °FPassing clouds.8 mph70%29.86 "HgN/A
3:30 PM84 °FPassing clouds.6 mph74%29.89 "HgN/A
3:00 PM84 °FPassing clouds.6 mph74%29.89 "HgN/A
2:30 PM84 °FPassing clouds.7 mph74%29.89 "HgN/A
2:00 PM84 °FPassing clouds.7 mph74%29.89 "HgN/A
1:30 PM84 °FPassing clouds.6 mph70%29.92 "HgN/A
1:00 PM84 °FPassing clouds.6 mph70%29.92 "HgN/A
12:30 PM84 °FPassing clouds.8 mph70%29.92 "HgN/A
12:00 PM84 °FPassing clouds.7 mph70%29.92 "HgN/A
11:30 AM84 °FPassing clouds.7 mph70%29.92 "HgN/A
11:00 AM82 °FPassing clouds.8 mph74%29.95 "HgN/A
10:30 AM81 °FPassing clouds.9 mph84%29.95 "HgN/A
10:00 AM79 °FPassing clouds.7 mph89%29.95 "HgN/A
9:30 AM77 °FPassing clouds.5 mph94%29.92 "HgN/A
9:00 AM75 °FLight rain. Passing clouds.2 mph94%29.95 "Hg6 mi
8:30 AM75 °FLight rain. Low clouds.No wind94%29.95 "Hg6 mi
8:00 AM75 °FThunderstorms. Low clouds.2 mph94%29.95 "Hg6 mi
7:30 AM75 °FThunderstorms. Low clouds.5 mph94%29.95 "Hg6 mi
7:00 AM75 °FThunderstorms. Passing clouds.5 mph94%29.92 "Hg6 mi
6:30 AM73 °FThunderstorms. Mostly cloudy.9 mph100%29.95 "Hg3 mi
6:00 AM75 °FStrong thunderstorms. Overcast.24 mph89%29.98 "Hg1 mi
5:30 AM73 °FThunderstorms. Partly cloudy.17 mph89%29.92 "Hg5 mi
5:00 AM81 °FThunderstorms. Passing clouds.6 mph89%29.92 "HgN/A
4:30 AM81 °FThunderstorms. Passing clouds.2 mph89%29.89 "HgN/A
4:00 AM81 °FThunderstorms. Passing clouds.3 mph89%29.92 "HgN/A
3:30 AM82 °FThunderstorms. Passing clouds.5 mph84%29.92 "HgN/A
3:00 AM82 °FThunderstorms. Passing clouds.3 mph84%29.92 "HgN/A
2:30 AM82 °FPassing clouds.2 mph84%29.95 "HgN/A
2:00 AM82 °FPassing clouds.6 mph84%29.95 "HgN/A
1:30 AM82 °FPassing clouds.6 mph84%29.98 "HgN/A
1:00 AM82 °FPassing clouds.6 mph84%29.98 "HgN/A
12:30 AM82 °FPassing clouds.6 mph84%29.98 "HgN/A
12:00 AM82 °FPassing clouds.6 mph84%29.95 "HgN/A
11:30 PM
Wed, Sep 28
82 °FPassing clouds.6 mph84%29.98 "HgN/A
11:00 PM82 °FPassing clouds.6 mph84%29.95 "HgN/A
10:30 PM82 °FPassing clouds.3 mph84%29.95 "HgN/A
10:00 PM82 °FPassing clouds.2 mph84%29.92 "HgN/A
9:30 PM82 °FPassing clouds.5 mph84%29.92 "HgN/A
9:00 PM82 °FPassing clouds.2 mph79%29.89 "HgN/A
8:30 PM82 °FPassing clouds.3 mph84%29.89 "HgN/A
8:00 PM84 °FPassing clouds.2 mph79%29.89 "HgN/A
Weather by CustomWeather, © 2016

See weather overviewHow to use our weather pages